timestamp,wind_dir_avg,wind_spd_avg,wind_spd_max_dir,wind_spd_gust,battery_voltage,lat,long
2022-09-02 00:04:00+00:00,167.0,12.92,167.0,15.38,12.49,47.59359,-54.27349
2022-09-02 00:14:01+00:00,167.0,13.97,175.0,15.41,12.41,47.59359,-54.27349
2022-09-02 00:24:01+00:00,172.0,14.35,168.0,16.1,12.41,47.59359,-54.27349
2022-09-02 00:34:01+00:00,169.0,11.77,172.0,13.68,12.41,47.59359,-54.27349
2022-09-02 00:44:01+00:00,173.0,11.52,174.0,12.77,12.41,47.59359,-54.27349
2022-09-02 00:54:01+00:00,171.0,10.71,168.0,12.5,12.41,47.59359,-54.27349
2022-09-02 01:04:01+00:00,171.0,9.17,169.0,10.52,12.41,47.59359,-54.27349
2022-09-02 01:14:00+00:00,176.0,10.47,172.0,12.51,12.41,47.59359,-54.27349
2022-09-02 01:24:00+00:00,175.0,11.27,171.0,12.92,12.41,47.59359,-54.27349
2022-09-02 01:34:00+00:00,178.0,10.82,184.0,12.41,12.41,47.59359,-54.27349
2022-09-02 01:44:00+00:00,175.0,10.53,174.0,12.06,12.41,47.59359,-54.27349
2022-09-02 01:54:00+00:00,175.0,11.72,177.0,13.33,12.41,47.59359,-54.27349
2022-09-02 02:04:00+00:00,171.0,10.3,174.0,11.84,12.41,47.59359,-54.27349
2022-09-02 02:14:00+00:00,175.0,10.76,183.0,11.95,12.33,47.59359,-54.27349
2022-09-02 02:24:00+00:00,171.0,11.28,170.0,13.91,12.33,47.59359,-54.27349
2022-09-02 02:34:00+00:00,172.0,8.67,170.0,10.88,12.33,47.59359,-54.27349
2022-09-02 02:44:00+00:00,170.0,10.24,171.0,11.13,12.33,47.59359,-54.27349
2022-09-02 02:54:00+00:00,172.0,10.28,170.0,11.75,12.33,47.59359,-54.27349
2022-09-02 03:04:00+00:00,179.0,11.46,184.0,13.06,12.33,47.59359,-54.27349
2022-09-02 03:14:01+00:00,179.0,10.97,178.0,12.98,12.33,47.59359,-54.27349
2022-09-02 03:24:01+00:00,184.0,11.03,185.0,12.79,12.33,47.59359,-54.27349
2022-09-02 03:34:01+00:00,184.0,11.17,184.0,15.61,12.33,47.59359,-54.27349
2022-09-02 03:44:01+00:00,183.0,12.42,183.0,13.92,12.33,47.59359,-54.27349
2022-09-02 03:54:01+00:00,187.0,10.86,182.0,12.18,12.33,47.59359,-54.27349
2022-09-02 04:04:01+00:00,191.0,11.15,190.0,13.0,12.33,47.59359,-54.27349
2022-09-02 04:14:00+00:00,192.0,11.35,197.0,12.88,12.41,47.59359,-54.27349
2022-09-02 04:24:00+00:00,189.0,10.04,188.0,12.24,12.41,47.59359,-54.27349
2022-09-02 04:34:00+00:00,192.0,10.85,194.0,13.28,12.41,47.59359,-54.27349
2022-09-02 04:44:00+00:00,186.0,11.05,183.0,12.83,12.41,47.59359,-54.27349
2022-09-02 04:54:00+00:00,189.0,12.46,192.0,14.11,12.41,47.59359,-54.27349
2022-09-02 05:04:00+00:00,189.0,12.38,190.0,14.04,12.41,47.59359,-54.27349
2022-09-02 05:14:01+00:00,190.0,11.87,190.0,14.05,12.41,47.59359,-54.27349
2022-09-02 05:24:01+00:00,186.0,12.61,186.0,14.02,12.41,47.59359,-54.27349
2022-09-02 05:34:01+00:00,186.0,12.27,190.0,14.51,12.41,47.59359,-54.27349
2022-09-02 05:44:01+00:00,178.0,13.52,180.0,15.72,12.41,47.59359,-54.27349
2022-09-02 05:54:01+00:00,186.0,10.75,181.0,12.77,12.41,47.59359,-54.27349
2022-09-02 06:04:01+00:00,186.0,11.29,188.0,13.1,12.41,47.59359,-54.27349
2022-09-02 06:14:00+00:00,185.0,11.24,191.0,12.8,12.41,47.59359,-54.27349
2022-09-02 06:24:00+00:00,186.0,11.73,186.0,13.86,12.41,47.59359,-54.27349
2022-09-02 06:34:00+00:00,187.0,12.38,181.0,14.26,12.41,47.59359,-54.27349
2022-09-02 06:44:00+00:00,192.0,12.82,191.0,15.24,12.41,47.59359,-54.27349
2022-09-02 06:54:00+00:00,193.0,12.4,192.0,14.33,12.41,47.59359,-54.27349
2022-09-02 07:04:00+00:00,192.0,12.57,194.0,14.53,12.41,47.59359,-54.27349
2022-09-02 07:14:00+00:00,200.0,11.22,201.0,12.92,12.25,47.59359,-54.27349
2022-09-02 07:24:00+00:00,213.0,10.17,215.0,11.81,12.25,47.59359,-54.27349
2022-09-02 07:34:00+00:00,211.0,13.05,222.0,15.52,12.25,47.59359,-54.27349
2022-09-02 07:44:00+00:00,208.0,11.13,208.0,12.68,12.25,47.59359,-54.27349
2022-09-02 07:54:00+00:00,217.0,10.3,215.0,12.23,12.25,47.59359,-54.27349
2022-09-02 08:04:00+00:00,214.0,10.84,217.0,12.98,12.25,47.59359,-54.27349
2022-09-02 08:14:00+00:00,209.0,9.84,215.0,11.55,12.25,47.59359,-54.27349
2022-09-02 08:24:00+00:00,207.0,9.62,209.0,10.94,12.25,47.59359,-54.27349
2022-09-02 08:34:00+00:00,209.0,8.65,209.0,9.68,12.25,47.59359,-54.27349
2022-09-02 08:44:00+00:00,211.0,7.93,211.0,9.25,12.25,47.59359,-54.27349
2022-09-02 08:54:00+00:00,208.0,7.86,208.0,8.71,12.25,47.59359,-54.27349
2022-09-02 09:04:00+00:00,219.0,6.51,217.0,7.24,12.25,47.59359,-54.27349
2022-09-02 09:14:00+00:00,223.0,5.43,223.0,6.08,12.17,47.59359,-54.27349
2022-09-02 09:24:00+00:00,221.0,5.19,222.0,5.67,12.17,47.59359,-54.27349
2022-09-02 09:34:00+00:00,227.0,6.18,235.0,7.72,12.17,47.59359,-54.27349
2022-09-02 09:44:00+00:00,224.0,5.07,238.0,6.97,12.17,47.59359,-54.27349
2022-09-02 09:54:00+00:00,230.0,6.65,233.0,7.66,12.17,47.59359,-54.27349
2022-09-02 10:04:00+00:00,233.0,6.09,237.0,7.13,12.17,47.59359,-54.27349
2022-09-02 10:14:00+00:00,239.0,5.85,244.0,6.74,12.33,47.59359,-54.27349
2022-09-02 10:24:00+00:00,227.0,5.26,238.0,6.87,12.33,47.59359,-54.27349
2022-09-02 10:34:00+00:00,222.0,5.3,233.0,6.91,12.33,47.59359,-54.27349
2022-09-02 10:44:00+00:00,194.0,3.81,212.0,4.31,12.33,47.59359,-54.27349
2022-09-02 10:54:00+00:00,184.0,4.81,183.0,5.28,12.33,47.59359,-54.27349
2022-09-02 11:04:00+00:00,182.0,5.06,184.0,5.63,12.33,47.59359,-54.27349
2022-09-02 11:14:01+00:00,201.0,5.98,220.0,7.33,13.13,47.59359,-54.27349
2022-09-02 11:24:01+00:00,188.0,5.48,219.0,7.15,13.13,47.59359,-54.27349
2022-09-02 11:34:01+00:00,182.0,5.14,184.0,5.42,13.13,47.59359,-54.27349
2022-09-02 11:44:01+00:00,182.0,5.2,181.0,5.46,13.13,47.59359,-54.27349
2022-09-02 11:54:01+00:00,179.0,4.63,180.0,4.79,13.13,47.59359,-54.27349
2022-09-02 12:04:01+00:00,194.0,4.41,220.0,5.1,13.13,47.59359,-54.27349
2022-09-02 12:14:01+00:00,212.0,5.61,221.0,6.33,13.68,47.59359,-54.27349
2022-09-02 12:24:01+00:00,226.0,7.5,228.0,7.89,13.68,47.59359,-54.27349
2022-09-02 12:34:01+00:00,225.0,5.84,233.0,7.21,13.68,47.59359,-54.27349
2022-09-02 12:44:01+00:00,224.0,7.05,225.0,8.04,13.68,47.59359,-54.27349
2022-09-02 12:54:01+00:00,217.0,7.38,225.0,8.52,13.68,47.59359,-54.27349
2022-09-02 13:04:01+00:00,216.0,7.38,221.0,8.11,13.68,47.59359,-54.27349
2022-09-02 13:14:00+00:00,213.0,7.1,222.0,8.01,14.24,47.59359,-54.27349
2022-09-02 13:24:00+00:00,216.0,6.32,221.0,7.3,14.24,47.59359,-54.27349
2022-09-02 13:34:00+00:00,213.0,5.76,227.0,7.1,14.24,47.59359,-54.27349
2022-09-02 13:44:00+00:00,222.0,5.18,231.0,6.75,14.24,47.59359,-54.27349
2022-09-02 13:54:00+00:00,214.0,5.45,214.0,5.9,14.24,47.59359,-54.27349
2022-09-02 14:04:00+00:00,216.0,6.02,215.0,6.99,14.24,47.59359,-54.27349
2022-09-02 14:14:00+00:00,218.0,4.75,215.0,5.61,14.24,47.59359,-54.27349
2022-09-02 14:24:00+00:00,221.0,4.49,224.0,5.07,14.24,47.59359,-54.27349
2022-09-02 14:34:00+00:00,218.0,5.08,228.0,5.84,14.24,47.59359,-54.27349
2022-09-02 14:44:00+00:00,209.0,6.07,213.0,6.62,14.24,47.59359,-54.27349
2022-09-02 14:54:00+00:00,202.0,5.74,211.0,6.76,14.24,47.59359,-54.27349
2022-09-02 15:04:00+00:00,207.0,5.72,215.0,6.73,14.24,47.59359,-54.27349
2022-09-02 15:14:00+00:00,209.0,6.11,210.0,6.84,13.76,47.59359,-54.27349
2022-09-02 15:24:00+00:00,219.0,6.55,221.0,7.32,13.76,47.59359,-54.27349
2022-09-02 15:34:00+00:00,221.0,7.2,221.0,7.84,13.76,47.59359,-54.27349
2022-09-02 15:44:00+00:00,225.0,7.21,227.0,8.01,13.76,47.59359,-54.27349
2022-09-02 15:54:00+00:00,223.0,6.28,218.0,7.13,13.76,47.59359,-54.27349
2022-09-02 16:04:00+00:00,220.0,5.93,217.0,6.93,13.76,47.59359,-54.27349
2022-09-02 16:14:01+00:00,214.0,6.3,215.0,7.43,14.48,47.59359,-54.27349
2022-09-02 16:24:01+00:00,214.0,8.03,215.0,8.9,14.48,47.59359,-54.27349
2022-09-02 16:34:01+00:00,216.0,8.09,214.0,8.66,14.48,47.59359,-54.27349
2022-09-02 16:44:01+00:00,215.0,6.97,214.0,7.78,14.48,47.59359,-54.27349
2022-09-02 16:54:01+00:00,223.0,8.67,222.0,9.77,14.48,47.59359,-54.27349
2022-09-02 17:04:01+00:00,218.0,9.72,218.0,10.77,14.48,47.59359,-54.27349
2022-09-02 17:14:00+00:00,226.0,7.93,227.0,9.1,14.32,47.59359,-54.27349
2022-09-02 17:24:00+00:00,226.0,8.26,221.0,9.51,14.32,47.59359,-54.27349
2022-09-02 17:34:00+00:00,220.0,9.56,223.0,10.12,14.32,47.59359,-54.27349
2022-09-02 17:44:00+00:00,223.0,8.55,220.0,10.08,14.32,47.59359,-54.27349
2022-09-02 17:54:00+00:00,224.0,7.96,222.0,8.66,14.32,47.59359,-54.27349
2022-09-02 18:04:00+00:00,232.0,6.95,231.0,7.77,14.32,47.59359,-54.27349
2022-09-02 18:14:01+00:00,222.0,8.02,223.0,9.3,14.0,47.59359,-54.27349
2022-09-02 18:24:01+00:00,211.0,8.11,213.0,9.03,14.0,47.59359,-54.27349
2022-09-02 18:34:01+00:00,211.0,8.64,212.0,9.57,14.0,47.59359,-54.27349
2022-09-02 18:44:01+00:00,207.0,8.49,209.0,9.46,14.0,47.59359,-54.27349
2022-09-02 18:54:01+00:00,211.0,8.21,208.0,9.27,14.0,47.59359,-54.27349
2022-09-02 19:04:01+00:00,210.0,8.36,212.0,9.2,14.0,47.59359,-54.27349
2022-09-02 19:14:01+00:00,214.0,7.03,217.0,7.85,13.76,47.59359,-54.27349
2022-09-02 19:24:01+00:00,211.0,7.27,221.0,8.21,13.76,47.59359,-54.27349
2022-09-02 19:34:01+00:00,215.0,6.96,219.0,8.02,13.76,47.59359,-54.27349
2022-09-02 19:44:01+00:00,213.0,6.71,221.0,7.6,13.76,47.59359,-54.27349
2022-09-02 19:54:01+00:00,214.0,7.91,225.0,8.94,13.76,47.59359,-54.27349
2022-09-02 20:04:01+00:00,217.0,8.25,224.0,9.14,13.76,47.59359,-54.27349
2022-09-02 20:14:00+00:00,221.0,8.33,220.0,8.88,13.6,47.59359,-54.27349
2022-09-02 20:24:00+00:00,216.0,7.5,222.0,8.43,13.6,47.59359,-54.27349
2022-09-02 20:34:00+00:00,221.0,8.21,221.0,9.03,13.6,47.59359,-54.27349
2022-09-02 20:44:00+00:00,218.0,8.09,219.0,9.0,13.6,47.59359,-54.27349
2022-09-02 20:54:00+00:00,210.0,7.04,206.0,8.86,13.6,47.59359,-54.27349
2022-09-02 21:04:00+00:00,212.0,6.64,219.0,7.4,13.6,47.59359,-54.27349
2022-09-02 21:14:01+00:00,214.0,7.45,218.0,8.31,13.37,47.59359,-54.27349
2022-09-02 21:24:01+00:00,214.0,7.24,221.0,8.16,13.37,47.59359,-54.27349
2022-09-02 21:34:01+00:00,215.0,7.64,221.0,8.49,13.37,47.59359,-54.27349
2022-09-02 21:44:01+00:00,213.0,7.27,219.0,8.33,13.37,47.59359,-54.27349
2022-09-02 21:54:01+00:00,212.0,6.83,214.0,7.34,13.37,47.59359,-54.27349
2022-09-02 22:04:01+00:00,210.0,7.03,209.0,7.6,13.37,47.59359,-54.27349
2022-09-02 22:14:01+00:00,211.0,6.9,211.0,7.62,12.97,47.59359,-54.27349
2022-09-02 22:24:01+00:00,211.0,6.61,216.0,7.69,12.97,47.59359,-54.27349
2022-09-02 22:34:01+00:00,214.0,5.74,214.0,6.42,12.97,47.59359,-54.27349
2022-09-02 22:44:01+00:00,211.0,6.34,222.0,7.22,12.97,47.59359,-54.27349
2022-09-02 22:54:01+00:00,212.0,6.22,216.0,6.96,12.97,47.59359,-54.27349
2022-09-02 23:04:01+00:00,212.0,6.41,210.0,7.03,12.97,47.59359,-54.27349
2022-09-02 23:14:00+00:00,214.0,6.59,215.0,7.2,12.41,47.59359,-54.27349
2022-09-02 23:24:00+00:00,213.0,5.43,217.0,6.35,12.41,47.59359,-54.27349
2022-09-02 23:34:00+00:00,214.0,6.01,214.0,6.6,12.41,47.59359,-54.27349
2022-09-02 23:44:00+00:00,221.0,5.11,216.0,5.9,12.41,47.59359,-54.27349
2022-09-02 23:54:00+00:00,229.0,5.01,229.0,5.51,12.41,47.59359,-54.27349
